Gage, OK

7:25 AM CST on November 23, 2017 (GMT -0600)
Gage

Weather History for KGAG - July, 2013

Change the Weather History Date:

Wednesday, July 3, 2013

  Actual Average Record
Temperature  
Mean Temperature 72 °F -  
Max Temperature 89 °F 92 °F 104 °F (1953)
Min Temperature 55 °F 67 °F 54 °F (1992)
Cooling Degree Days 7    
Growing Degree Days 22 (Base 50)    
Moisture  
Dew Point 45 °F    
Average Humidity 40    
Maximum Humidity 74    
Minimum Humidity 19    
Precipitation  
Precipitation 0.00 in - - ()
Sea Level Pressure  
Sea Level Pressure 29.98 in    
Wind  
Wind Speed 7 mph (South)    
Max Wind Speed 14 mph    
Max Gust Speed 25 mph    
Visibility 10 miles    
Events      
Averages and records for this station are not official NWS values.
T = Trace of Precipitation, MM = Missing Value Source: NWS Daily Summary

Daily Weather History Graph

Daily Weather History Graph

Search for Another Location

Airport or City:

Trip Planner

Search our weather history database for the weather conditions in past years. The results will help you decide how hot, cold, wet, or windy it might be!

Date:

Astronomy

Jul. 03, 2013 Rise Set
Actual Time 6:26 AM CDT 9:00 PM CDT
Civil Twilight 5:56 AM CDT 9:30 PM CDT
Nautical Twilight 5:18 AM CDT 10:08 PM CDT
Astronomical Twilight 4:36 AM CDT 10:49 PM CDT
Moon 3:01 AM CDT (7/3) 5:15 PM CDT (7/3)
Length of Visible Light 15h 34m
Length of Day
14h 34m
Waning Crescent, 18% of the Moon is Illuminated
Jul 3
Waning Crescent
Jul 8
New
Jul 15
First Quarter
Jul 22
Full
Jul 29
Last Quarter

Hourly Weather History & Observations

Time (CDT) Temp. Dew Point Humidity Pressure Visibility Wind Dir Wind Speed Gust Speed Precip Events Conditions
12:53 AM 63.0 °F 46.0 °F 54% 30.07 in 10.0 mi SE 4.6 mph - N/A   Clear
1:53 AM 64.9 °F 46.9 °F 52% 30.06 in 10.0 mi SSE 10.4 mph - N/A   Clear
2:53 AM 63.0 °F 48.0 °F 58% 30.05 in 10.0 mi South 10.4 mph - N/A   Clear
3:53 AM 62.1 °F 48.0 °F 60% 30.04 in 10.0 mi SSE 9.2 mph - N/A   Clear
4:53 AM 57.0 °F 46.9 °F 69% 30.04 in 10.0 mi Calm Calm - N/A   Clear
5:53 AM 55.0 °F 46.9 °F 74% 30.05 in 10.0 mi Calm Calm - N/A   Scattered Clouds
6:53 AM 57.9 °F 46.9 °F 67% 30.04 in 10.0 mi Calm Calm - N/A   Clear
7:53 AM 64.9 °F 48.9 °F 56% 30.05 in 7.0 mi Calm Calm - N/A   Clear
8:53 AM 71.1 °F 50.0 °F 47% 30.06 in 10.0 mi Calm Calm - N/A   Mostly Cloudy
9:53 AM 75.9 °F 46.9 °F 36% 30.05 in 10.0 mi SW 9.2 mph - N/A   Partly Cloudy
10:53 AM 81.0 °F 46.0 °F 29% 30.03 in 10.0 mi SW 11.5 mph - N/A   Partly Cloudy
11:53 AM 82.9 °F 41.0 °F 23% 30.02 in 10.0 mi SW 6.9 mph - N/A   Clear
12:53 PM 84.9 °F 41.0 °F 21% 30.00 in 10.0 mi Variable 4.6 mph - N/A   Partly Cloudy
1:53 PM 87.1 °F 39.9 °F 19% 29.97 in 10.0 mi Calm Calm - N/A   Scattered Clouds
3:53 PM 89.1 °F 42.1 °F 19% 29.93 in 10.0 mi South 13.8 mph 25.3 mph N/A   Clear
4:53 PM 84.9 °F 42.1 °F 22% 29.91 in 10.0 mi South 11.5 mph 19.6 mph N/A   Clear
5:53 PM 88.0 °F 42.1 °F 20% 29.89 in 10.0 mi SSW 12.7 mph - N/A   Overcast
6:53 PM 86.0 °F 43.0 °F 22% 29.88 in 10.0 mi South 11.5 mph - N/A   Clear
7:53 PM 82.9 °F 43.0 °F 24% 29.88 in 10.0 mi SSE 10.4 mph - N/A   Mostly Cloudy
8:53 PM 77.0 °F 45.0 °F 32% 29.88 in 10.0 mi SSE 9.2 mph - N/A   Clear
9:53 PM 75.0 °F 45.0 °F 34% 29.90 in 10.0 mi SE 6.9 mph - N/A   Mostly Cloudy
10:53 PM 71.1 °F 46.0 °F 41% 29.92 in 10.0 mi SE 10.4 mph - N/A   Clear
11:53 PM 73.0 °F 48.0 °F 41% 29.93 in 10.0 mi SE 13.8 mph - N/A   Clear